Location: Perugia
(43.1330°N, 12.3670°E)
Time: 06:14:32
(UTC+01:00)

ISS - Pass Details

Date: 26 January 2021
Orbit: 417 x 422 km, 51.6° (Epoch: 05 March)

Event Time Altitude Azimuth Distance (km) Brightness Sun altitude
Rises 18:47:22 0° 288° (WNW) 2,371 1.2 -16.9°
Reaches altitude 10° 18:49:53 10° 307° (NW) 1,507 -0.3 -17.3°
Maximum altitude 18:52:25 19° 355° (N) 1,065 -1.8 -17.8°
Enters shadow 18:52:55 19° 8° (N) 1,086 -1.8 -17.9°
